Amagansett, NY (11930)

9:59 AM EST on January 19, 2017 (GMT -0500)
Beach Hampton | | Change Station

Elev 43 ft 40.97 °N, 72.14 °W | Updated 12 minutes ago

Mostly Cloudy
Mostly Cloudy
42.0 °F
Feels Like 42 °F
N
0.0
Wind Variable Wind from SSW
Gusts 10.0 mph

Today
High -- | Low -- °F
--% Chance of Precip.
Yesterday
High -- | Low -- °F
Precip. -- in
Pressure 30.04 in
Visibility 10.0 miles
Clouds Overcast 3400 ft
Windchill 42 °F
Dew Point 40 °F
Humidity 93%
Rainfall 0.00 in
Snow Depth Not available.
7:09 AM 4:50 PM
Waning Gibbous, 53% visible
METAR KHTO 191435Z AUTO 29004KT 10SM OVC034 05/02 A3004 RMK AO2 T00460022
Pressure 30.04 in
Visibility 10.0 miles
Clouds Overcast 3400 ft
Windchill 42 °F
Dew Point 40 °F
Humidity 93%
Rainfall 0.00 in
Snow Depth Not available.
7:09 AM 4:50 PM
Waning Gibbous, 53% visible
METAR KHTO 191435Z AUTO 29004KT 10SM OVC034 05/02 A3004 RMK AO2 T00460022

Get Your Daily Forecast Email!

Thanks for signing up!

Be on the lookout for a verification email in your inbox.

You'll start receiving the daily forecast at 8 AM.

×

10-Day Weather Forecast

Almanac

Astronomy

Jan. 19, 2017 Rise Set
Actual Time
Civil Twilight
Nautical Twilight
Astronomical Twilight
Moon
Length of Visible Light
Length of Day
Tomorrow will be .
, % of the Moon is Illuminated

Today's Extremes

State Highs State Lows

Community

WunderPhotos

Upload Photos

1,962,540 photos uploaded!

WunderBlog® & News

Nearby

Air Quality

  Air Quality AQ Index Pollutant
Not available.

Snow Depth

Station Depth Elevation

Earthquake Activity

City Distance Mag. Time & Date
Minimum magnitude displayed is 2.5.

Coastal Water Temperatures

Place Temperature

Stations

Nearby Weather Stations

Station Location Temp. Windchill Dew Point Humidity Wind Precip. Elev Updated Type
                   

Watches & Warnings

Small Craft for Hazardous Seas Advisory
Issued: 5:57 AM EST Jan. 19, 2017 – National Weather Service

... Small Craft Advisory for hazardous seas remains in effect
until 6 PM EST this evening...

* seas... 4 to 6 feet.

Precautionary/preparedness actions...

A Small Craft Advisory for hazardous seas means that seas of 5 ft
or higher are expected or occurring... and hazardous to small
craft. Mariners should avoid shoaling areas. Long period swells
can sharpen into large breaking waves in shoaling areas. It is
not unusual for waves to break much farther from shoaling areas
than is normally experienced. Remember that breaking waves can
easily capsize even larger vessels.